"Pseudo-MPEC" for P12oAZ6

Created 2026 Aug 6 3:35:06 UT using Find_Orb

Click here for an explanation of pseudo-MPECs

 
 Astrometry: 
     P12oAZ6*0C2026 07 24.50892722 49 58.736-02 01 03.37   ~7OG5 21.96wXNEOCPF51
     P12oAZ6 0C2026 07 24.52081422 49 59.809-02 00 52.78   ~7OG5 22.24wXNEOCPF51
     P12oAZ6 0C2026 07 24.53291822 50 00.894-02 00 41.97   ~7OG5 22.25wXNEOCPF51
     P12oAZ6 0C2026 07 26.50433922 53 12.606-01 31 38.57   ~7QGK 23.57GVNEOCPF52
     P12oAZ6 0C2026 07 26.51403822 53 13.489-01 31 30.12   ~7QGK 22.55GVNEOCPF52
     P12oAZ6 0C2026 07 26.52371322 53 14.344-01 31 21.67   ~7QGK 21.57GVNEOCPF52

Station data:
(F51) Pan-STARRS 1, Haleakala  (N20.707234 W156.255910)  US/Hawaii.
   Observers J. Herman, T. Lowe, P. Minguez, A. Schultz, I. Smith. Measurers
   K. Chambers, T. de Boer, J. Fairlamb, H. Gao, M. Huber, C.-C. Lin, E.
   Magnier, Y. Ramanjooloo, R. Wainscoat, R. Weryk. 1.8-m Ritchey-Chrétien +
   CCD.
(F52) Pan-STARRS 2, Haleakala  (N20.707382 W156.255910)  US/Hawaii.
   Observers J. Herman, T. Lowe, P. Minguez, A. Schultz, I. Smith. Measurers
   K. Chambers, T. de Boer, J. Fairlamb, H. Gao, M. Huber, C.-C. Lin, E.
   Magnier, Y. Ramanjooloo, R. Wainscoat, R. Weryk. 1.8-m Ritchey-Chrétien +
   CCD.

Orbital elements:  P12oAZ6
   Perihelion 2026 Oct 16.957377 +/- 29.1 TT = 22:58:37.3 (JD 2461330.457377)
Epoch 2026 Jul 26.0 TT = JDT 2461247.5   Earth MOID: 0.0697   Ma: 0.0855
M 331.879864464 +/- 10              (J2000 ecliptic)             AutoNEOCP
n   0.338970886 +/- 0.108           Peri.  170.319114 +/- 36
a   2.037172396 +/- 0.432           Node   219.326196 +/- 11
e   0.47735245 +/- 0.114            Incl.    1.697903 +/- 0.20
P   2.90765                H 22.10  G  0.15   U 11.3  SR
q 1.064723147 +/- 0.085    Q 3.009621645 +/- 1.7
From 6 observations 2026 July 24-26; mean residual 0".16
Residuals in arcseconds: 
260724 F51  .15-  .22-    260724 F51  .12+  .23+    260726 F52  .13+  .01-    
260724 F51  .03+  .01-    260726 F52  .06+  .22+    260726 F52  .18-  .22-    

Ephemerides (geocentric):
Date (UTC) HH   RA             Dec           delta  r     elong  mag " sig PA
---- --------  ------------   ------------  ------ ------ -----  --- --------
2026 08 06 04  23 11 41.091   +01 20 07.49  .36510 1.3258 143.5 21.7 1498 121
2026 08 06 05  23 11 45.742   +01 20 51.09  .36477 1.3255 143.5 21.7 1510 121
2026 08 06 06  23 11 50.396   +01 21 34.72  .36445 1.3253 143.6 21.7 1521 121
2026 08 06 07  23 11 55.053   +01 22 18.37  .36412 1.3250 143.6 21.7 1533 121
2026 08 06 08  23 11 59.714   +01 23 02.06  .36379 1.3248 143.6 21.7 1544 121
2026 08 06 09  23 12 04.377   +01 23 45.77  .36346 1.3245 143.6 21.7 1556 121
2026 08 06 10  23 12 09.044   +01 24 29.52  .36313 1.3243 143.6 21.7 1567 121
2026 08 06 11  23 12 13.714   +01 25 13.29  .36280 1.3240 143.6 21.7 1579 121
2026 08 06 12  23 12 18.386   +01 25 57.10  .36248 1.3238 143.7 21.7 1590 121
2026 08 06 13  23 12 23.062   +01 26 40.93  .36215 1.3235 143.7 21.7 1602 121
2026 08 06 14  23 12 27.741   +01 27 24.80  .36182 1.3233 143.7 21.7 1614 121
2026 08 06 15  23 12 32.424   +01 28 08.69  .36149 1.3230 143.7 21.7 1626 121
2026 08 06 16  23 12 37.109   +01 28 52.62  .36117 1.3227 143.7 21.7 1637 121
2026 08 06 17  23 12 41.798   +01 29 36.57  .36084 1.3225 143.7 21.7 1649 121
2026 08 06 18  23 12 46.489   +01 30 20.56  .36051 1.3222 143.7 21.7 1661 121
2026 08 06 19  23 12 51.184   +01 31 04.57  .36019 1.3220 143.8 21.7 1673 121
2026 08 06 20  23 12 55.882   +01 31 48.61  .35986 1.3217 143.8 21.7 1685 121
2026 08 06 21  23 13 00.583   +01 32 32.69  .35954 1.3215 143.8 21.7 1697 121
2026 08 06 22  23 13 05.288   +01 33 16.79  .35921 1.3212 143.8 21.7 1709 121
2026 08 06 23  23 13 09.996   +01 34 00.93  .35888 1.3210 143.8 21.7 1722 121
2026 08 07 00  23 13 14.706   +01 34 45.09  .35856 1.3207 143.8 21.7 1734 121
2026 08 07 01  23 13 19.421   +01 35 29.29  .35823 1.3205 143.9 21.7 1746 121
2026 08 07 02  23 13 24.138   +01 36 13.52  .35791 1.3202 143.9 21.7 1758 121
2026 08 07 03  23 13 28.859   +01 36 57.77  .35758 1.3200 143.9 21.7 1771 121
2026 08 07 04  23 13 33.582   +01 37 42.06  .35726 1.3197 143.9 21.7 1783 121
2026 08 07 05  23 13 38.310   +01 38 26.38  .35694 1.3195 143.9 21.7 1796 121
2026 08 07 06  23 13 43.040   +01 39 10.73  .35661 1.3192 143.9 21.7 1808 121
2026 08 07 07  23 13 47.774   +01 39 55.11  .35629 1.3190 144.0 21.7 1821 121
2026 08 07 08  23 13 52.511   +01 40 39.52  .35596 1.3187 144.0 21.7 1833 121
2026 08 07 09  23 13 57.251   +01 41 23.96  .35564 1.3185 144.0 21.7 1846 121
2026 08 07 10  23 14 01.994   +01 42 08.43  .35532 1.3182 144.0 21.7 1859 121
2026 08 07 11  23 14 06.741   +01 42 52.93  .35499 1.3180 144.0 21.7 1871 121
2026 08 07 12  23 14 11.491   +01 43 37.47  .35467 1.3178 144.0 21.7 1884 121
2026 08 07 13  23 14 16.245   +01 44 22.03  .35435 1.3175 144.1 21.7 1897 121
2026 08 07 14  23 14 21.002   +01 45 06.63  .35403 1.3173 144.1 21.7 1910 121
2026 08 07 15  23 14 25.762   +01 45 51.25  .35370 1.3170 144.1 21.7 1923 121
2026 08 07 16  23 14 30.526   +01 46 35.91  .35338 1.3168 144.1 21.6 1936 121
2026 08 07 17  23 14 35.293   +01 47 20.60  .35306 1.3165 144.1 21.6 1949 121
2026 08 07 18  23 14 40.063   +01 48 05.32  .35274 1.3163 144.1 21.6 1962 121
2026 08 07 19  23 14 44.837   +01 48 50.07  .35242 1.3160 144.1 21.6 1975 121
2026 08 07 20  23 14 49.614   +01 49 34.85  .35209 1.3158 144.2 21.6 1988 121
2026 08 07 21  23 14 54.394   +01 50 19.67  .35177 1.3155 144.2 21.6 2001 121
2026 08 07 22  23 14 59.178   +01 51 04.51  .35145 1.3153 144.2 21.6 2014 121
2026 08 07 23  23 15 03.966   +01 51 49.39  .35113 1.3150 144.2 21.6 2028 121
2026 08 08 00  23 15 08.757   +01 52 34.30  .35081 1.3148 144.2 21.6 2041 121
2026 08 08 01  23 15 13.551   +01 53 19.24  .35049 1.3145 144.2 21.6 2054 121
2026 08 08 02  23 15 18.349   +01 54 04.21  .35017 1.3143 144.3 21.6 2068 121
2026 08 08 03  23 15 23.150   +01 54 49.21  .34985 1.3140 144.3 21.6 2081 121